| time (UTC) | temp C | wind direction | speed KPH | gust KPH | rain 1hr cm | rain 24hr cm | rain mn cm | humidity % | barometer mb |
| 20260505124205 | 23 | 117 | 8.0 | 20.9 | 0.00 | 0.00 | 0.00 | 50 | 1003.6 |
| 20260505123703 | 23 | 102 | 8.0 | 19.3 | 0.00 | 0.00 | 0.00 | 51 | 1003.7 |
| 20260505122704 | 23 | 122 | 11.3 | 19.3 | 0.00 | 0.00 | 0.00 | 51 | 1003.8 |
| 20260505115703 | 23 | 136 | 9.7 | 19.3 | 0.00 | 0.00 | 0.00 | 51 | 1004.0 |
| 20260505115203 | 23 | 132 | 9.7 | 19.3 | 0.00 | 0.00 | 0.00 | 52 | 1004.0 |
| 20260505113704 | 23 | 140 | 9.7 | 14.5 | 0.00 | 0.00 | 0.00 | 52 | 1004.1 |
| 20260505112703 | 23 | 112 | 4.8 | 16.1 | 0.00 | 0.00 | 0.00 | 51 | 1004.3 |
| 20260505112203 | 23 | 200 | 6.4 | 16.1 | 0.00 | 0.00 | 0.00 | 53 | 1004.4 |
| 20260505111703 | 23 | 147 | 9.7 | 16.1 | 0.00 | 0.00 | 0.00 | 53 | 1004.4 |
| 20260505110703 | 23 | 154 | 6.4 | 14.5 | 0.00 | 0.00 | 0.00 | 51 | 1004.5 |
| 20260505110203 | 23 | 141 | 4.8 | 12.9 | 0.00 | 0.00 | 0.00 | 53 | 1004.5 |
| 20260505102204 | 22 | 152 | 6.4 | 14.5 | 0.00 | 0.00 | 0.00 | 53 | 1004.9 |
| 20260505101704 | 22 | 155 | 4.8 | 19.3 | 0.00 | 0.00 | 0.00 | 53 | 1005.0 |
| 20260505101204 | 22 | 119 | 4.8 | 19.3 | 0.00 | 0.00 | 0.00 | 52 | 1005.0 |
| 20260505100704 | 23 | 150 | 6.4 | 16.1 | 0.00 | 0.00 | 0.00 | 54 | 1005.0 |
| 20260505095703 | 22 | 110 | 8.0 | 19.3 | 0.00 | 0.00 | 0.00 | 55 | 1005.0 |
| 20260505094204 | 22 | 111 | 8.0 | 12.9 | 0.00 | 0.00 | 0.00 | 53 | 1005.1 |
| 20260505093704 | 22 | 185 | 4.8 | 12.9 | 0.00 | 0.00 | 0.00 | 53 | 1005.1 |
| 20260505093204 | 22 | 163 | 6.4 | 12.9 | 0.00 | 0.00 | 0.00 | 54 | 1005.2 |
| 20260505092204 | 22 | 126 | 4.8 | 14.5 | 0.00 | 0.00 | 0.00 | 56 | 1005.2 |
| 20260505091704 | 22 | 174 | 4.8 | 14.5 | 0.00 | 0.00 | 0.00 | 57 | 1005.3 |
| 20260505085704 | 20 | 146 | 4.8 | 11.3 | 0.00 | 0.00 | 0.00 | 56 | 1005.5 |
| 20260505084703 | 21 | 207 | 3.2 | 4.8 | 0.00 | 0.00 | 0.00 | 56 | 1005.5 |
| 20260505084203 | 20 | 135 | 3.2 | 8.0 | 0.00 | 0.00 | 0.00 | 57 | 1005.6 |
| 20260505083704 | 20 | 156 | 3.2 | 9.7 | 0.00 | 0.00 | 0.00 | 56 | 1005.6 |
| 20260505081704 | 20 | 235 | 4.8 | 9.7 | 0.00 | 0.00 | 0.00 | 58 | 1005.8 |
| 20260505081203 | 19 | 138 | 6.4 | 8.0 | 0.00 | 0.00 | 0.00 | 58 | 1005.8 |
| 20260505080704 | 19 | 162 | 3.2 | 11.3 | 0.00 | 0.00 | 0.00 | 57 | 1005.9 |
| 20260505075704 | 18 | 143 | 4.8 | 11.3 | 0.00 | 0.00 | 0.00 | 58 | 1005.9 |
| 20260505074704 | 18 | 141 | 4.8 | 11.3 | 0.00 | 0.00 | 0.00 | 60 | 1006.0 |
| 20260505073703 | 17 | 179 | 3.2 | 11.3 | 0.00 | 0.00 | 0.00 | 60 | 1006.1 |
| 20260505072704 | 17 | 98 | 3.2 | 9.7 | 0.00 | 0.00 | 0.00 | 60 | 1006.2 |
| 20260505071204 | 17 | 126 | 4.8 | 4.8 | 0.00 | 0.00 | 0.00 | 61 | 1006.4 |
| 20260505070704 | 17 | 130 | 3.2 | 4.8 | 0.00 | 0.00 | 0.00 | 62 | 1006.4 |
| 20260505070204 | 16 | 152 | 3.2 | 9.7 | 0.00 | 0.00 | 0.00 | 64 | 1006.5 |
| 20260505065703 | 16 | 100 | 3.2 | 11.3 | 0.00 | 0.00 | 0.00 | 64 | 1006.5 |
| 20260505065204 | 16 | 109 | 4.8 | 11.3 | 0.00 | 0.00 | 0.00 | 64 | 1006.5 |
| 20260505064705 | 15 | 148 | 6.4 | 11.3 | 0.00 | 0.00 | 0.00 | 66 | 1006.5 |
| 20260505063704 | 15 | 96 | 6.4 | 9.7 | 0.00 | 0.00 | 0.00 | 65 | 1006.7 |
| 20260505063203 | 15 | 91 | 4.8 | 9.7 | 0.00 | 0.00 | 0.00 | 65 | 1006.7 |
| 20260505062704 | 15 | 141 | 3.2 | 9.7 | 0.00 | 0.00 | 0.00 | 67 | 1006.7 |
| 20260505061703 | 15 | 124 | 3.2 | 9.7 | 0.00 | 0.00 | 0.00 | 66 | 1006.8 |
| 20260505061203 | 14 | 97 | 3.2 | 9.7 | 0.00 | 0.00 | 0.00 | 67 | 1006.8 |
| 20260505060704 | 13 | 109 | 4.8 | 9.7 | 0.00 | 0.00 | 0.00 | 67 | 1006.8 |
| 20260505055704 | 13 | 126 | 1.6 | 4.8 | 0.00 | 0.00 | 0.00 | 70 | 1006.8 |
| 20260505055204 | 13 | 132 | 1.6 | 4.8 | 0.00 | 0.00 | 0.00 | 71 | 1006.8 |
| 20260505054203 | 12 | 260 | 0.0 | 3.2 | 0.00 | 0.00 | 0.00 | 72 | 1006.9 |
| 20260505053704 | 12 | 260 | 1.6 | 3.2 | 0.00 | 0.00 | 0.00 | 72 | 1006.9 |
| 20260505053204 | 12 | 260 | 1.6 | 4.8 | 0.00 | 0.00 | 0.00 | 72 | 1006.9 |
| 20260505051704 | 12 | 260 | 1.6 | 3.2 | 0.00 | 0.00 | 0.00 | 74 | 1006.9 |
| 20260505051204 | 12 | 260 | 0.0 | 3.2 | 0.00 | 0.00 | 0.00 | 73 | 1007.0 |
| 20260505050203 | 12 | 260 | 1.6 | 3.2 | 0.00 | 0.00 | 0.00 | 75 | 1007.1 |
| 20260505040704 | 11 | 260 | 0.0 | 4.8 | 0.00 | 0.00 | 0.00 | 75 | 1007.0 |
| 20260505040204 | 11 | 260 | 3.2 | 4.8 | 0.00 | 0.00 | 0.00 | 74 | 1007.0 |
| 20260505035203 | 11 | 189 | 1.6 | 3.2 | 0.00 | 0.00 | 0.00 | 72 | 1006.9 |
| 20260505034704 | 11 | 201 | 1.6 | 4.8 | 0.00 | 0.00 | 0.00 | 73 | 1006.8 |
| 20260505033704 | 12 | 208 | 1.6 | 4.8 | 0.00 | 0.00 | 0.00 | 71 | 1006.8 |
| 20260505033204 | 12 | 248 | 3.2 | 9.7 | 0.00 | 0.00 | 0.00 | 69 | 1006.7 |
| 20260505032204 | 12 | 88 | 4.8 | 12.9 | 0.00 | 0.00 | 0.00 | 69 | 1006.5 |
| 20260505031703 | 12 | 85 | 4.8 | 14.5 | 0.00 | 0.00 | 0.00 | 70 | 1006.6 |
| 20260505024204 | 12 | 50 | 6.4 | 16.1 | 0.00 | 0.00 | 0.00 | 70 | 1006.8 |
| 20260505023704 | 12 | 59 | 8.0 | 11.3 | 0.00 | 0.00 | 0.00 | 71 | 1006.8 |
| 20260505023204 | 12 | 51 | 4.8 | 11.3 | 0.00 | 0.00 | 0.00 | 72 | 1006.9 |
| 20260505022704 | 12 | 51 | 4.8 | 9.7 | 0.00 | 0.00 | 0.00 | 73 | 1007.0 |
| 20260505021205 | 11 | 42 | 3.2 | 8.0 | 0.00 | 0.00 | 0.00 | 74 | 1007.2 |
| 20260505015205 | 11 | 78 | 1.6 | 3.2 | 0.00 | 0.00 | 0.00 | 76 | 1007.3 |
| 20260505014704 | 11 | 78 | 1.6 | 3.2 | 0.00 | 0.00 | 0.00 | 76 | 1007.4 |
| 20260505014204 | 11 | 78 | 1.6 | 3.2 | 0.00 | 0.00 | 0.00 | 75 | 1007.5 |
| 20260505013204 | 11 | 78 | 1.6 | 3.2 | 0.00 | 0.00 | 0.00 | 74 | 1007.5 |
| 20260505012705 | 12 | 78 | 0.0 | 4.8 | 0.00 | 0.00 | 0.00 | 73 | 1007.5 |
| 20260505011705 | 11 | 82 | 1.6 | 4.8 | 0.00 | 0.00 | 0.00 | 73 | 1007.7 |
| 20260505010704 | 11 | 70 | 1.6 | 4.8 | 0.00 | 0.00 | 0.00 | 74 | 1007.8 |
| 20260505010205 | 11 | 65 | 1.6 | 4.8 | 0.00 | 0.00 | 0.00 | 73 | 1007.9 |
| 20260505005704 | 11 | 56 | 3.2 | 4.8 | 0.00 | 0.00 | 0.00 | 73 | 1007.9 |
| 20260505005203 | 11 | 44 | 3.2 | 8.0 | 0.00 | 0.00 | 0.00 | 73 | 1007.9 |
| 20260505004704 | 11 | 58 | 4.8 | 8.0 | 0.00 | 0.00 | 0.00 | 73 | 1008.0 |
| 20260505003704 | 11 | 45 | 3.2 | 4.8 | 0.00 | 0.00 | 0.00 | 73 | 1008.2 |
| 20260505003204 | 11 | 26 | 1.6 | 8.0 | 0.00 | 0.00 | 0.00 | 73 | 1008.3 |
| 20260505002204 | 11 | 59 | 3.2 | 8.0 | 0.00 | 0.00 | 0.00 | 75 | 1008.5 |
| 20260505001204 | 11 | 49 | 3.2 | 4.8 | 0.00 | 0.00 | 0.00 | 75 | 1008.7 |
| 20260505000204 | 11 | 350 | 1.6 | 3.2 | 0.00 | 0.00 | 0.00 | 75 | 1008.8 |
| 20260504235204 | 11 | 350 | 1.6 | 4.8 | 0.00 | 0.00 | 0.00 | 73 | 1008.8 |
| 20260504233704 | 12 | 23 | 1.6 | 4.8 | 0.00 | 0.00 | 0.00 | 69 | 1008.9 |
| 20260504233204 | 12 | 23 | 1.6 | 4.8 | 0.00 | 0.00 | 0.00 | 69 | 1008.8 |
| 20260504231205 | 12 | 53 | 3.2 | 4.8 | 0.00 | 0.00 | 0.00 | 71 | 1009.0 |
| 20260504225205 | 13 | 300 | 0.0 | 4.8 | 0.00 | 0.00 | 0.00 | 66 | 1009.2 |
| 20260504224704 | 15 | 301 | 3.2 | 4.8 | 0.00 | 0.00 | 0.00 | 62 | 1009.3 |
| 20260504221704 | 16 | 26 | 1.6 | 11.3 | 0.00 | 0.00 | 0.00 | 56 | 1009.2 |
| 20260504215704 | 16 | 109 | 3.2 | 8.0 | 0.00 | 0.00 | 0.00 | 56 | 1009.4 |
| 20260504214204 | 16 | 90 | 3.2 | 11.3 | 0.00 | 0.00 | 0.00 | 55 | 1009.4 |
| 20260504213704 | 16 | 103 | 3.2 | 11.3 | 0.00 | 0.00 | 0.00 | 54 | 1009.3 |
| 20260504212204 | 17 | 79 | 4.8 | 22.5 | 0.00 | 0.00 | 0.00 | 54 | 1009.3 |
| 20260504211704 | 17 | 94 | 4.8 | 22.5 | 0.00 | 0.00 | 0.00 | 53 | 1009.4 |
| 20260504211205 | 17 | 86 | 8.0 | 22.5 | 0.00 | 0.00 | 0.00 | 52 | 1009.4 |
| 20260504204702 | 17 | 97 | 9.7 | 19.3 | 0.00 | 0.00 | 0.00 | 52 | 1009.5 |
| 20260504204202 | 17 | 96 | 8.0 | 19.3 | 0.00 | 0.00 | 0.00 | 52 | 1009.4 |
| 20260504202703 | 17 | 102 | 9.7 | 14.5 | 0.00 | 0.00 | 0.00 | 52 | 1009.5 |
| 20260504201203 | 17 | 108 | 9.7 | 19.3 | 0.00 | 0.00 | 0.00 | 52 | 1009.5 |
| 20260504200703 | 17 | 116 | 9.7 | 19.3 | 0.00 | 0.00 | 0.00 | 52 | 1009.6 |
| 20260504192702 | 17 | 115 | 9.7 | 16.1 | 0.00 | 0.00 | 0.00 | 55 | 1009.8 |
| 20260504191702 | 18 | 100 | 8.0 | 16.1 | 0.00 | 0.00 | 0.00 | 55 | 1009.7 |
| 20260504190703 | 18 | 108 | 8.0 | 19.3 | 0.00 | 0.00 | 0.00 | 55 | 1009.6 |
| 20260504190203 | 18 | 114 | 8.0 | 16.1 | 0.00 | 0.00 | 0.00 | 55 | 1009.7 |
| 20260504185703 | 18 | 116 | 8.0 | 16.1 | 0.00 | 0.00 | 0.00 | 55 | 1009.7 |
| 20260504185203 | 18 | 103 | 9.7 | 16.1 | 0.00 | 0.00 | 0.00 | 55 | 1009.6 |
| 20260504184202 | 18 | 123 | 8.0 | 16.1 | 0.00 | 0.00 | 0.00 | 55 | 1009.5 |
| 20260504183203 | 18 | 121 | 8.0 | 16.1 | 0.00 | 0.00 | 0.00 | 55 | 1009.3 |
| 20260504182702 | 19 | 129 | 8.0 | 16.1 | 0.00 | 0.00 | 0.00 | 56 | 1009.3 |
| 20260504182203 | 19 | 116 | 8.0 | 19.3 | 0.00 | 0.00 | 0.00 | 55 | 1009.3 |
| 20260504181703 | 19 | 111 | 9.7 | 19.3 | 0.00 | 0.00 | 0.00 | 55 | 1009.4 |
| 20260504180202 | 20 | 129 | 9.7 | 14.5 | 0.00 | 0.00 | 0.00 | 57 | 1009.3 |
| 20260504174702 | 20 | 96 | 8.0 | 12.9 | 0.00 | 0.00 | 0.00 | 59 | 1009.3 |
| 20260504174202 | 20 | 100 | 4.8 | 11.3 | 0.00 | 0.00 | 0.00 | 59 | 1009.4 |
| 20260504173703 | 20 | 93 | 3.2 | 11.3 | 0.00 | 0.00 | 0.00 | 58 | 1009.4 |
| 20260504172702 | 20 | 111 | 3.2 | 9.7 | 0.00 | 0.00 | 0.00 | 58 | 1009.3 |
| 20260504171703 | 21 | 93 | 4.8 | 9.7 | 0.00 | 0.00 | 0.00 | 56 | 1009.5 |
| 20260504171202 | 21 | 124 | 3.2 | 8.0 | 0.00 | 0.00 | 0.00 | 56 | 1009.5 |
| 20260504170203 | 21 | 124 | 4.8 | 9.7 | 0.00 | 0.00 | 0.00 | 55 | 1009.5 |
| 20260504150703 | 23 | 138 | 4.8 | 16.1 | 0.00 | 0.00 | 0.00 | 48 | 1010.0 |
| 20260504141202 | 23 | 125 | 6.4 | 14.5 | 0.00 | 0.00 | 0.00 | 49 | 1010.4 |
| 20260504140702 | 23 | 120 | 6.4 | 12.9 | 0.00 | 0.00 | 0.00 | 50 | 1010.5 |